Location: Marcé
(47.5801°N, 0.3280°W)
Time: 14:38:11
(UTC+01:00)

Vanguard 3 - Pass Details

Date: 10 December 2021
Orbit: 508 x 3260 km, 33.3° (Epoch: 20 January)

Event Time Altitude Azimuth Distance (km) Brightness Sun altitude
Rises 06:32:45 0° 265° (W) 7,073 - -20.2°
Reaches altitude 10° 06:37:38 10° 261° (W) 6,164 - -19.4°
Exits shadow 06:40:16 16° 257° (WSW) 5,691 10.9 -19.0°
Maximum altitude 06:55:47 46° 197° (SSW) 3,706 10.4 -16.4°
Drops below altitude 10° 07:10:02 10° 131° (SE) 4,917 12.3 -14.2°
Sets 07:13:27 0° 125° (SE) 5,596 13.0 -13.6°
